User: anonymous   Login
Location: Albany
(35.0000°S, 118.0000°E)
Time: 09:09:04
(UTC-04:00)
Language:

ADEOS Rocket - Orbit

View from above orbital plane
View from above orbital plane
View from above satellite
View from above satellite

Ground track
Ground track

The orbit data is extracted from the following two-line orbital elements,

1 24279U 96046C   15111.16947366  .00000060  00000-0  11712-3 0  9991
2 24279 098.7036 144.8879 0301036 139.3769 265.6645 13.47022352918158
Epoch (UTC): 21 April 2015 04:04:02
Eccentricity: 0.0301036
inclination: 98.7036°
perigee height: 858 km
apogee height: 1308 km
right ascension of ascending node: 144.8879°
argument of perigee: 139.3769°
revolutions per day: 13.47022352
mean anomaly at epoch: 265.6645°
orbit number at epoch: 91815

The dashed part of the orbit path shows where the satellite is in the earth's shadow,  

DLR